EW8974 Weather Reports


Display with metric or nautical units.
time (UTC)temp
F
wind
direction
speed
MPH
gust
MPH
rain 1hr
in
rain 24hr
in
rain mn
in
humidity
%
barometer
mb
20260508022028 59 280 0.0 0.0 0.00 0.00 0.00 85 1009.3
20260508021528 59 280 0.0 0.0 0.00 0.00 0.00 85 1009.4
20260508021027 59 280 0.0 0.0 0.00 0.00 0.00 84 1009.6
20260508020527 59 280 0.0 0.0 0.00 0.00 0.00 84 1009.5
20260508020027 60 280 0.0 0.0 0.00 0.00 0.00 83 1009.6
20260508015526 60 280 0.0 0.0 0.00 0.00 0.00 83 1009.4
20260508015026 60 280 0.0 0.0 0.00 0.00 0.00 83 1009.3
20260508014526 60 280 0.0 0.0 0.00 0.00 0.00 82 1009.1
20260508014026 60 280 0.0 0.0 0.00 0.00 0.00 82 1009.1
20260508013528 60 280 0.0 0.0 0.00 0.00 0.00 81 1009.3
20260508013029 61 280 0.0 0.0 0.00 0.00 0.00 79 1009.2
20260508012525 61 280 0.0 0.0 0.00 0.00 0.00 79 1009.2
20260508012025 61 280 0.0 0.0 0.00 0.00 0.00 77 1009.1
20260508011530 62 280 0.0 0.0 0.00 0.00 0.00 77 1009.2
20260508011026 62 280 0.0 0.0 0.00 0.00 0.00 76 1009.1
20260508010525 62 280 0.0 0.0 0.00 0.00 0.00 74 1009.1
20260508010025 63 280 0.0 0.0 0.00 0.00 0.00 72 1009.3
20260508005524 63 280 0.0 0.0 0.00 0.00 0.00 73 1009.4
20260508005025 63 280 0.0 0.0 0.00 0.00 0.00 72 1009.2
20260508004538 64 280 0.0 0.0 0.00 0.00 0.00 71 1009.2
20260508004023 64 280 0.0 0.0 0.00 0.00 0.00 71 1009.3
20260508003523 64 280 0.0 0.0 0.00 0.00 0.00 71 1009.2
20260508003023 64 280 0.0 0.0 0.00 0.00 0.00 69 1009.3
20260508002523 65 280 0.0 0.0 0.00 0.00 0.00 67 1009.1
20260508002026 65 280 0.0 0.0 0.00 0.00 0.00 67 1009.2
20260508001532 65 280 0.0 0.0 0.00 0.00 0.00 66 1009.3
20260508001022 65 280 0.0 0.0 0.00 0.00 0.00 66 1009.4
20260508000522 65 280 0.0 0.0 0.00 0.00 0.00 65 1009.4
20260508000022 66 280 0.0 0.0 0.00 0.00 0.00 66 1009.7
20260507235526 66 280 0.0 0.0 0.00 0.00 0.00 66 1009.8
20260507235021 66 280 0.0 0.0 0.00 0.00 0.00 65 1009.9
20260507234522 66 280 0.0 0.0 0.00 0.00 0.00 63 1009.8
20260507234021 66 280 0.0 0.0 0.00 0.00 0.00 66 1009.6
20260507233523 66 280 0.0 0.0 0.00 0.00 0.00 65 1009.3
20260507233021 66 280 0.0 0.0 0.00 0.00 0.00 64 1009.2
20260507232521 67 280 0.0 0.0 0.00 0.00 0.00 64 1009.3
20260507232020 67 280 0.0 0.0 0.00 0.00 0.00 62 1009.4
20260507231519 67 280 0.0 0.0 0.00 0.00 0.00 63 1009.6
20260507231019 67 280 0.0 1.0 0.00 0.00 0.00 62 1009.6
20260507230518 67 280 0.0 1.0 0.00 0.00 0.00 61 1009.7
20260507230018 67 280 0.0 0.0 0.00 0.00 0.00 60 1009.9
20260507225517 68 280 0.0 0.0 0.00 0.00 0.00 62 1009.9
20260507225018 68 280 0.0 0.0 0.00 0.00 0.00 61 1009.7
20260507224519 68 280 0.0 1.0 0.00 0.00 0.00 60 1009.7
20260507224016 68 280 0.0 1.0 0.00 0.00 0.00 59 1010.0
20260507223516 69 78 0.0 1.0 0.00 0.00 0.00 59 1010.0
20260507223016 69 78 0.0 1.0 0.00 0.00 0.00 59 1010.0
20260507222519 69 79 0.0 1.0 0.00 0.00 0.00 58 1010.1
20260507222018 69 248 0.0 1.0 0.00 0.00 0.00 58 1010.2
20260507221516 70 257 0.0 1.0 0.00 0.00 0.00 57 1010.3
20260507221018 70 257 0.0 1.0 0.00 0.00 0.00 57 1010.3
20260507220518 69 257 0.0 1.0 0.00 0.00 0.00 58 1010.1
20260507220015 69 257 0.0 2.0 0.00 0.00 0.00 57 1010.0
20260507215515 70 257 0.0 3.0 0.00 0.00 0.00 55 1010.0
20260507215014 70 223 0.0 2.0 0.00 0.00 0.00 54 1010.1
20260507214514 70 269 0.0 2.0 0.00 0.00 0.00 55 1010.3
20260507214014 70 269 0.0 2.0 0.00 0.00 0.00 54 1010.2
20260507213516 70 34 0.0 2.0 0.00 0.00 0.00 57 1010.2
20260507213017 70 34 0.0 2.0 0.00 0.00 0.00 54 1010.5
20260507212511 70 308 0.0 0.0 0.00 0.00 0.00 53 1010.5
20260507212014 71 307 0.0 0.0 0.00 0.00 0.00 55 1010.8
20260507211511 71 307 0.0 1.0 0.00 0.00 0.00 56 1010.7
20260507211010 71 289 0.0 1.0 0.00 0.00 0.00 55 1010.7
20260507210510 71 289 0.0 1.0 0.00 0.00 0.00 56 1011.1
20260507210010 71 284 0.0 1.0 0.00 0.00 0.00 54 1011.1
20260507205510 72 284 0.0 1.0 0.00 0.00 0.00 55 1011.2
20260507205010 72 284 0.0 1.0 0.00 0.00 0.00 54 1011.1
20260507204510 71 284 0.0 1.0 0.00 0.00 0.00 53 1011.1
20260507204009 72 284 0.0 1.0 0.00 0.00 0.00 53 1011.0
20260507203510 72 356 0.0 1.0 0.00 0.00 0.00 54 1010.9
20260507203011 72 356 0.0 1.0 0.00 0.00 0.00 54 1010.8
20260507202513 72 249 0.0 1.0 0.00 0.00 0.00 55 1010.8
20260507202010 72 186 0.0 1.0 0.00 0.00 0.00 54 1010.8
20260507201509 72 51 0.0 1.0 0.00 0.00 0.00 55 1010.9
20260507201009 71 51 0.0 3.0 0.00 0.00 0.00 55 1010.9
20260507200509 72 51 1.0 3.0 0.00 0.00 0.00 50 1011.0
20260507200008 72 45 0.0 1.0 0.00 0.00 0.00 51 1011.1
20260507195507 72 247 0.0 1.0 0.00 0.00 0.00 53 1011.1
20260507195007 72 139 0.0 2.0 0.00 0.00 0.00 52 1011.2
20260507194515 72 55 0.0 2.0 0.00 0.00 0.00 50 1011.2
20260507194010 73 31 0.0 2.0 0.00 0.00 0.00 51 1011.2
20260507193507 72 94 0.0 2.0 0.00 0.00 0.00 51 1011.4
20260507193005 72 70 0.0 1.0 0.00 0.00 0.00 54 1011.5
20260507192604 72 82 0.0 3.0 0.00 0.00 0.00 51 1011.5
20260507192003 72 79 0.0 3.0 0.00 0.00 0.00 52 1011.8
20260507191505 72 65 0.0 1.0 0.00 0.00 0.00 55 1011.9
20260507191002 71 300 0.0 2.0 0.00 0.00 0.00 55 1012.0
20260507190501 71 62 0.0 1.0 0.00 0.00 0.00 55 1012.1
20260507190004 71 39 0.0 3.0 0.00 0.00 0.00 55 1012.2
20260507185559 71 57 0.0 3.0 0.00 0.00 0.00 52 1012.1
20260507185059 71 4 0.0 3.0 0.00 0.00 0.00 55 1012.2
20260507184559 70 5 0.0 6.0 0.00 0.00 0.00 54 1012.2
20260507184058 70 38 1.0 6.0 0.00 0.00 0.00 51 1012.1
20260507183558 70 58 1.0 5.0 0.00 0.00 0.00 54 1011.9
20260507183059 69 42 0.0 5.0 0.00 0.00 0.00 55 1011.9
20260507182558 70 46 0.0 6.0 0.00 0.00 0.00 54 1011.8
20260507182059 70 27 3.0 6.0 0.00 0.00 0.00 53 1011.7
20260507181558 70 350 1.0 4.0 0.00 0.00 0.00 55 1011.9
20260507181058 70 62 1.0 5.0 0.00 0.00 0.00 54 1012.0
20260507180558 70 349 1.0 5.0 0.00 0.00 0.00 56 1012.0
20260507180057 70 22 0.0 7.0 0.00 0.00 0.00 56 1012.1
20260507175557 70 60 1.0 7.0 0.00 0.00 0.00 57 1012.2
20260507175057 70 84 3.0 7.0 0.00 0.00 0.00 54 1012.1
20260507174602 70 271 0.0 7.0 0.00 0.00 0.00 56 1012.1
20260507174156 70 49 2.0 7.0 0.00 0.00 0.00 54 1012.2
20260507173556 71 75 1.0 9.0 0.00 0.00 0.00 56 1012.2
20260507173129 71 76 3.0 8.0 0.00 0.00 0.00 57 1012.5
20260507172556 70 176 1.0 7.0 0.00 0.00 0.00 57 1012.5
20260507172054 71 328 2.0 10.0 0.00 0.00 0.00 55 1012.6
20260507171558 70 9 2.0 10.0 0.00 0.00 0.00 56 1012.7
20260507171054 70 59 3.0 9.0 0.00 0.00 0.00 58 1012.6
20260507170554 70 197 2.0 7.0 0.00 0.00 0.00 56 1012.6
20260507170052 70 326 2.0 10.0 0.00 0.00 0.00 57 1012.8
20260507165551 70 30 1.0 6.0 0.00 0.00 0.00 59 1012.9
20260507165050 69 31 1.0 5.0 0.00 0.00 0.00 60 1013.1
20260507164550 69 27 1.0 5.0 0.00 0.00 0.00 60 1013.2
20260507164049 69 289 0.0 4.0 0.00 0.00 0.00 59 1013.4
20260507163547 69 60 0.0 6.0 0.00 0.00 0.00 62 1013.6
20260507163046 68 71 1.0 3.0 0.00 0.00 0.00 61 1013.5
20260507162548 68 23 0.0 7.0 0.00 0.00 0.00 64 1013.8
20260507162046 67 101 1.0 7.0 0.00 0.00 0.00 63 1013.9
20260507161550 67 64 1.0 6.0 0.00 0.00 0.00 63 1013.8
20260507161045 67 45 2.0 6.0 0.00 0.00 0.00 61 1013.7
20260507160544 67 105 0.0 4.0 0.00 0.00 0.00 66 1013.6
20260507160049 67 88 1.0 4.0 0.00 0.00 0.00 64 1013.6
20260507155540 66 58 0.0 4.0 0.00 0.00 0.00 69 1013.6
20260507155040 65 112 1.0 7.0 0.00 0.00 0.00 66 1013.6
20260507154541 65 44 2.0 7.0 0.00 0.00 0.00 66 1013.6
20260507154039 66 68 1.0 7.0 0.00 0.00 0.00 66 1013.6
20260507153542 65 49 0.0 6.0 0.00 0.00 0.00 67 1013.6
20260507153037 65 41 1.0 9.0 0.00 0.00 0.00 69 1013.7
20260507152538 64 70 3.0 9.0 0.00 0.00 0.00 69 1013.8
20260507152035 63 75 0.0 4.0 0.00 0.00 0.00 72 1013.7
20260507151534 63 37 1.0 5.0 0.00 0.00 0.00 72 1014.0
20260507151034 62 123 1.0 5.0 0.00 0.00 0.00 74 1014.1
20260507150531 62 58 1.0 4.0 0.00 0.00 0.00 74 1014.1
20260507150039 61 81 1.0 4.0 0.00 0.00 0.00 75 1014.2
20260507145528 61 56 1.0 5.0 0.00 0.00 0.00 77 1014.2
20260507145027 60 72 1.0 7.0 0.00 0.00 0.00 77 1014.2
20260507144526 59 29 2.0 7.0 0.00 0.00 0.00 78 1014.3
20260507144024 59 83 2.0 6.0 0.00 0.00 0.00 79 1014.3
20260507143524 59 101 1.0 5.0 0.00 0.00 0.00 79 1014.3
20260507143023 58 51 1.0 5.0 0.00 0.00 0.00 80 1014.3
20260507142522 58 63 2.0 5.0 0.00 0.00 0.00 81 1014.3
20260507142027 58 83 1.0 5.0 0.00 0.00 0.00 82 1014.4
20260507141519 57 101 1.0 5.0 0.00 0.00 0.00 82 1014.3
20260507141018 57 7 1.0 6.0 0.00 0.00 0.00 83 1014.1
20260507140521 57 69 1.0 6.0 0.00 0.00 0.00 84 1014.2
20260507140017 56 81 1.0 6.0 0.00 0.00 0.00 83 1014.3
20260507135516 56 110 1.0 4.0 0.00 0.00 0.00 85 1014.2
20260507135016 56 22 1.0 3.0 0.00 0.00 0.00 86 1014.3
20260507134516 56 107 0.0 3.0 0.00 0.00 0.00 87 1014.2
20260507134016 56 88 0.0 2.0 0.00 0.00 0.00 89 1014.3
20260507133516 55 47 0.0 2.0 0.00 0.00 0.00 89 1014.3
20260507133019 55 49 0.0 2.0 0.00 0.00 0.00 90 1014.3
20260507132523 55 103 0.0 2.0 0.00 0.00 0.00 90 1014.5
20260507132016 54 61 0.0 3.0 0.00 0.00 0.00 91 1014.6
20260507131516 54 32 0.0 3.0 0.00 0.00 0.00 92 1014.5
20260507131015 54 34 0.0 2.0 0.00 0.00 0.00 93 1014.5
20260507130515 53 61 0.0 2.0 0.00 0.00 0.00 93 1014.6
20260507130015 53 58 0.0 2.0 0.00 0.00 0.00 93 1014.6
20260507125514 52 46 0.0 2.0 0.00 0.00 0.00 94 1014.6
20260507125015 52 8 0.0 0.0 0.00 0.00 0.00 94 1014.5
20260507124514 52 8 0.0 1.0 0.00 0.00 0.00 94 1014.4
20260507124013 51 8 0.0 1.0 0.00 0.00 0.00 93 1014.5
20260507123518 51 8 0.0 0.0 0.00 0.00 0.00 93 1014.4
20260507123015 51 8 0.0 0.0 0.00 0.00 0.00 93 1014.4
20260507122513 50 8 0.0 0.0 0.00 0.00 0.00 93 1014.6
20260507122012 50 8 0.0 1.0 0.00 0.00 0.00 93 1014.7
20260507121512 50 8 0.0 1.0 0.00 0.00 0.00 93 1014.6
20260507121013 50 8 0.0 1.0 0.00 0.00 0.00 93 1014.5
20260507120512 50 8 0.0 1.0 0.00 0.00 0.00 93 1014.6
20260507120012 50 8 0.0 1.0 0.00 0.00 0.00 93 1014.6
20260507115511 49 8 0.0 1.0 0.00 0.00 0.00 93 1014.7
20260507115010 49 8 0.0 0.0 0.00 0.00 0.00 93 1014.7
20260507114510 49 8 0.0 0.0 0.00 0.00 0.00 93 1014.5
20260507114009 49 8 0.0 0.0 0.00 0.00 0.00 93 1014.4
20260507113509 49 8 0.0 1.0 0.00 0.00 0.00 93 1014.4
20260507113012 49 8 0.0 1.0 0.00 0.00 0.00 93 1014.3
20260507112507 49 8 0.0 1.0 0.00 0.00 0.00 93 1014.2
20260507112007 49 8 0.0 1.0 0.00 0.00 0.00 93 1014.0
20260507111507 49 8 0.0 1.0 0.00 0.00 0.00 93 1014.0
20260507111005 49 8 0.0 1.0 0.00 0.00 0.00 93 1013.9
20260507110504 49 8 0.0 1.0 0.00 0.00 0.00 93 1013.8
20260507110005 49 8 0.0 1.0 0.00 0.00 0.00 93 1013.6
20260507105504 49 8 0.0 1.0 0.00 0.00 0.00 92 1013.5
20260507105002 50 8 0.0 1.0 0.00 0.00 0.00 92 1013.5
20260507104501 50 8 0.0 1.0 0.00 0.00 0.00 92 1013.1
20260507104059 50 8 0.0 1.0 0.00 0.00 0.00 92 1013.1
20260507103601 50 8 0.0 1.0 0.00 0.00 0.00 92 1013.0
20260507103059 50 8 0.0 1.0 0.00 0.00 0.00 92 1012.8
20260507102557 50 8 0.0 1.0 0.00 0.00 0.00 92 1012.7
20260507102059 50 8 0.0 1.0 0.00 0.00 0.00 92 1012.6
20260507101557 50 34 0.0 1.0 0.00 0.00 0.00 92 1012.5
20260507101056 50 34 0.0 1.0 0.00 0.00 0.00 92 1012.7
20260507100555 50 34 0.0 1.0 0.00 0.00 0.00 92 1012.5
20260507100055 51 34 0.0 0.0 0.00 0.00 0.00 91 1012.3
20260507095554 51 34 0.0 0.0 0.00 0.00 0.00 91 1012.1
20260507095052 51 34 0.0 2.0 0.00 0.00 0.00 91 1012.2
20260507094559 51 34 0.0 2.0 0.00 0.00 0.00 91 1012.1
20260507094052 51 47 0.0 2.0 0.00 0.00 0.00 91 1011.9
20260507093553 51 57 0.0 3.0 0.00 0.00 0.00 91 1011.9
20260507093050 51 57 0.0 3.0 0.00 0.00 0.00 91 1011.8
20260507092550 52 86 0.0 2.0 0.00 0.00 0.00 91 1011.7
20260507092051 52 75 0.0 2.0 0.00 0.00 0.00 91 1011.8
20260507091549 52 75 0.0 3.0 0.00 0.00 0.00 91 1012.0
20260507091048 52 108 0.0 2.0 0.00 0.00 0.00 91 1012.1
20260507090548 52 69 0.0 2.0 0.00 0.00 0.00 90 1012.1
20260507090047 52 69 0.0 2.0 0.00 0.00 0.00 90 1012.2
20260507085545 52 37 0.0 2.0 0.00 0.00 0.00 90 1012.1
20260507085045 53 63 0.0 3.0 0.00 0.00 0.00 90 1011.8
20260507084544 53 63 0.0 2.0 0.00 0.00 0.00 90 1011.8
20260507084044 53 60 0.0 4.0 0.00 0.00 0.00 90 1011.6
20260507083544 53 10 0.0 4.0 0.00 0.00 0.00 90 1011.5
20260507083043 53 93 0.0 4.0 0.00 0.00 0.00 90 1011.4
20260507082542 53 60 0.0 4.0 0.00 0.00 0.00 89 1011.6
20260507082046 54 33 1.0 4.0 0.00 0.00 0.00 89 1011.7
20260507081543 54 73 0.0 3.0 0.00 0.00 0.00 89 1011.9
20260507081045 54 91 0.0 6.0 0.00 0.00 0.00 90 1011.9
20260507080540 54 82 2.0 6.0 0.00 0.00 0.00 90 1011.8
20260507080040 54 83 0.0 4.0 0.00 0.00 0.00 90 1011.8
20260507075539 54 75 0.0 6.0 0.00 0.00 0.00 90 1011.7
20260507075039 53 79 1.0 6.0 0.00 0.00 0.00 90 1011.7
20260507074538 53 57 1.0 4.0 0.00 0.00 0.00 90 1011.7
20260507074036 53 64 0.0 3.0 0.00 0.00 0.00 90 1011.5
20260507073536 53 82 0.0 6.0 0.00 0.00 0.00 90 1011.3
20260507073035 53 56 0.0 6.0 0.00 0.00 0.00 90 1011.2
20260507072535 53 61 0.0 2.0 0.00 0.00 0.00 89 1011.2
20260507072035 53 75 0.0 2.0 0.00 0.00 0.00 89 1010.9
20260507071536 53 74 0.0 4.0 0.00 0.00 0.00 88 1010.7
20260507071033 53 75 0.0 4.0 0.00 0.00 0.00 88 1010.7
20260507070533 53 38 0.0 2.0 0.00 0.00 0.00 88 1010.7
20260507070043 54 82 0.0 3.0 0.00 0.00 0.00 88 1010.8
20260507065535 54 78 0.0 3.0 0.00 0.00 0.00 88 1010.8
20260507065030 54 13 0.0 1.0 0.00 0.00 0.00 87 1010.8
20260507064530 54 54 0.0 3.0 0.00 0.00 0.00 87 1011.0
20260507064032 54 83 0.0 2.0 0.00 0.00 0.00 87 1010.9
20260507063528 54 26 0.0 3.0 0.00 0.00 0.00 87 1011.0
20260507063028 54 31 0.0 4.0 0.00 0.00 0.00 87 1011.0
20260507062527 54 101 0.0 4.0 0.00 0.00 0.00 87 1011.1
20260507062027 55 51 0.0 1.0 0.00 0.00 0.00 86 1011.1
20260507061526 55 48 0.0 3.0 0.00 0.00 0.00 86 1011.0
20260507061025 55 68 0.0 3.0 0.00 0.00 0.00 86 1011.1
20260507060524 55 53 0.0 2.0 0.00 0.00 0.00 86 1011.0
20260507060029 55 113 0.0 3.0 0.00 0.00 0.00 86 1010.9
20260507055523 56 71 0.0 3.0 0.00 0.00 0.00 85 1011.0
20260507055022 56 116 0.0 5.0 0.00 0.00 0.00 85 1011.0
20260507054521 56 63 0.0 5.0 0.00 0.00 0.00 85 1010.9
20260507054020 56 81 0.0 3.0 0.00 0.00 0.00 86 1011.0
20260507053518 56 60 0.0 3.0 0.00 0.00 0.00 85 1011.0
20260507053019 56 61 0.0 4.0 0.00 0.00 0.00 85 1010.9
20260507052518 56 58 0.0 3.0 0.00 0.00 0.00 85 1010.8
20260507052017 56 91 0.0 3.0 0.00 0.00 0.00 85 1010.8
20260507051517 56 58 0.0 2.0 0.00 0.00 0.00 85 1010.8
20260507051016 56 66 0.0 2.0 0.00 0.00 0.00 84 1010.8
20260507050514 57 28 0.0 3.0 0.00 0.00 0.00 84 1011.0
20260507050021 57 28 0.0 4.0 0.00 0.00 0.00 84 1010.9
20260507045512 57 110 1.0 5.0 0.00 0.00 0.00 83 1010.9
20260507045012 57 79 1.0 6.0 0.00 0.00 0.00 83 1011.1
20260507044511 57 39 0.0 9.0 0.00 0.00 0.00 83 1011.1
20260507044015 57 347 2.0 9.0 0.00 0.00 0.00 83 1011.1
20260507043511 57 65 0.0 4.0 0.00 0.00 0.00 83 1011.4
20260507043011 57 94 1.0 6.0 0.00 0.00 0.00 83 1011.3
20260507042511 57 60 0.0 6.0 0.00 0.00 0.00 83 1011.2
20260507042019 57 74 2.0 9.0 0.00 0.00 0.00 83 1011.2
20260507041512 57 65 0.0 3.0 0.00 0.00 0.00 83 1011.2
20260507041013 57 58 0.0 4.0 0.00 0.00 0.00 83 1011.2
20260507040511 57 46 1.0 4.0 0.00 0.00 0.00 83 1011.3
20260507040010 57 67 0.0 7.0 0.00 0.00 0.00 83 1011.5
20260507035515 57 12 2.0 8.0 0.00 0.00 0.00 83 1011.4
20260507035009 57 46 1.0 8.0 0.00 0.00 0.00 83 1011.6
20260507034507 57 74 0.0 7.0 0.00 0.00 0.00 83 1011.7
20260507034006 58 208 1.0 9.0 0.00 0.00 0.00 84 1011.5
20260507033507 58 66 1.0 9.0 0.00 0.00 0.00 84 1011.5
20260507033006 58 83 1.0 9.0 0.00 0.00 0.00 84 1011.5
20260507032508 58 25 4.0 9.0 0.00 0.00 0.00 84 1011.3
20260507032004 58 96 3.0 7.0 0.00 0.00 0.00 84 1011.3
20260507031503 58 37 1.0 7.0 0.00 0.00 0.00 85 1011.2
20260507031006 57 91 2.0 7.0 0.00 0.00 0.00 85 1011.0
20260507030502 57 39 2.0 5.0 0.00 0.00 0.00 86 1010.8
20260507030001 57 98 1.0 6.0 0.00 0.00 0.00 86 1010.8
20260507025601 57 61 0.0 6.0 0.00 0.00 0.00 87 1010.7
20260507025059 57 102 0.0 5.0 0.00 0.00 0.00 87 1010.5
20260507024613 57 69 1.0 8.0 0.00 0.00 0.00 87 1010.5
20260507024059 57 55 1.0 8.0 0.00 0.00 0.00 87 1010.3
20260507023556 57 64 2.0 6.0 0.00 0.00 0.00 87 1010.3
20260507023055 57 85 0.0 8.0 0.00 0.00 0.00 87 1010.2
20260507022554 57 25 2.0 8.0 0.00 0.00 0.00 87 1010.1